User: anonymous   Login
Location: Unspecified
(0.0000°N, 0.0000°E)
Time: 10:05:40
(UTC+00:00)
Language:

PEHEUNSAT 1 - Orbit

View from above orbital plane
View from above orbital plane
View from above satellite
View from above satellite

Ground track
Ground track

The orbit data is extracted from the following two-line orbital elements,

1 29712U 07001D   18017.48596744 +.00002825 +00000-0 +15855-3 0  9997
2 29712 097.5366 044.5154 0005377 249.6143 110.4511 15.14160407599648
Epoch (UTC): 17 January 2018 11:39:47
Eccentricity: 0.0005377
inclination: 97.5366°
perigee height: 520 km
apogee height: 527 km
right ascension of ascending node: 44.5154°
argument of perigee: 249.6143°
revolutions per day: 15.14160407
mean anomaly at epoch: 110.4511°
orbit number at epoch: 59964

The dashed part of the orbit path shows where the satellite is in the earth's shadow,  

DLR